Weather in Novyy Chirkey

Russia / Republic of Dagestan     43°09′39″N   47°03′13″E
temp.,
°C
wind,
m/s
gust,
m/s
humid.,
%
clouds,
%
prec.,
mm/h
press.,
hPa
HPBL,
m
17 april, sat
sat1700:00+12ese36590 0.0 101887
03:00+11e346815 0.0 101859
06:00+12ese467163 0.0 1017126
09:00+20ese7843100 0.0 1016548
12:00+22e6538100 0.0 1016785
15:00+23nnw353894 0.0 10171501
18:00+16ene365850 0.0 1018279
21:00+16w71258100 0.0 1020545
18 april, sun
sun1800:00+15wnw71169100 0.0 1020534
03:00+13wnw71176100 0.0 1020461
06:00+12wnw588486 0.0 1021376
09:00+16nw3364100 0.0 1020684
12:00+20ne224486 0.0 10171103
15:00+22ne433910 0.0 10171696
18:00+17e3453100 0.1 1018234
21:00+15ene1359100 0.3 1019158
19 april, mon
mon1900:00+14e2359100 0.0 101892
03:00+12ese2369100 0.0 101846
06:00+13ese2468100 0.0 101894
09:00+18ese454915 0.0 1018503
12:00+21e7741100 0.0 1016829
15:00+21e894264 0.0 1014664
18:00+16ese7125642 0.0 1014314
21:00+14ese6116022 0.0 1014253
20 april, tue
tue2000:00+14ese71263100 0.0 1012257
03:00+14ese61165100 0.0 1011226
06:00+14ese81464100 0.0 1009291
09:00+20ese101651100 0.0 1006490
12:00+21ese111450100 0.0 1004464
15:00+20ese111553100 0.0 1003477
18:00+16ese81174100 0.1 1004237
21:00+15se2477100 0.3 1008141
21 april, wed
wed2100:00+16w13196540 0.0 1012745
03:00+15w131862100 0.1 10141056
06:00+15w11155898 0.1 10171151
09:00+15w101360100 0.1 10181118
12:00+16wnw91156100 0.0 10191149
15:00+16wnw7956100 0.0 10191127
18:00+15wnw71158100 0.0 1020674
21:00+13wnw81260100 0.1 1021622